St Hubert Airport

Jump to: basic info | weather | frequencies | runways | comments

Related pages: nearby airports | nearby navaids | notams | map

Basic information (top)

Codes: EBSH
Location: lon 50.035900, lat 5.404250, elev 1,930 ft / 588 m msl
Status: small_airport

Weather (top)

Current conditions for Florennes Air Base 32nm (59km) WNW (rec'd 2014/07/31 04:55Z):

EBFS 310455Z VRB01KT 8000 FEW250 12/10 Q1017 BLU BLU TEMPO WHT

Airport forecast for Florennes Air Base 32nm (59km) WNW (rec'd 2014/07/07 19:09Z):

TAF EBFS 071541Z 0719/0807 01005KT 7000 -RA FEW050 SCT080 BKN110 
      BECMG 0800/0802 34010KT 4000 -RA FEW007 BKN050 BKN080 PROB40 
      TEMPO 0802/0807 3000 RA FEW005 BKN008

Frequencies (top)

Verify before use: may be inaccurate or out of date.

INFO: 122.175 MHz ()

Runways (top)

05/23: 1,969 x 623 ft (600 x 190 m) — grass — not lighted

14/32: 2,625 x 492 ft (800 x 150 m) — grass — not lighted

Latest comments (top)

Airport web site: http://www.sainthubert-airport.com/ R ... [read]

More... (top)

See also NOTAMs and nearby airports and navaids, or visit the St Hubert Airport page at the main OurAirports website..